Find Starlink 34711

NORAD ID: 64912 Int'l Des: 2025-157 Owner: SPXS Country: US Constellation: starlink operational
LEOCIRCULAR

現在のビュー

3D地球を読み込み中...

About Starlink 34711

Starlink 34711 (NORAD 64912) is a starlink constellation satellite (v2 mini) launched Jul 26, 2025 by SPXS of US. It operates in LEO, CIRCULAR orbit with a mass of 575.00 kg.

次回通過

Passes for default location (London). Set your location on the main map for personalized predictions.

高度履歴

Loading altitude history...

軌道要素

1 64912U 25157J 26263.22100247 .00016342 00000-0 49355-3 0 9994
2 64912 53.1583 158.8111 0001350 98.3263 261.7893 15.34411561 65956
Epoch: Sep 20, 2026 • Age: 14 hours

現在のステータス

高度 466.9 km
遠地点 / 近地点 N/A
速度 7.63 km/s
衛星直下点 -14.34°S, 144.02°W
打ち上げ日 Jul 26, 2025
運用期間 1.1 years
タイプ internet

技術仕様

分類 Payload
質量 575.00 kg
乾燥質量 530.00 kg
長さ 0.30 m
スパン 29.00 m
形状 ? Box + pan
製造者 SPXS
バスタイプ Starlink V2MO
フェーズステータス In Orbit
所有者/国 SPXS/US

Most Searched